User: anonymous   Login
Location: Unspecified
(0.0000°N, 0.0000°E)
Time: 07:42:01
(UTC+00:00)
Language:

PCSat - Orbit

View from above orbital plane
View from above orbital plane
View from above satellite
View from above satellite

Ground track
Ground track

The orbit data is extracted from the following two-line orbital elements,

1 26931U 01043C   20336.74880387  .00000008  00000-0  34884-4 0  9997
2 26931  67.0524  70.6638 0007148 274.5421  85.4863 14.30597050   976
Epoch (UTC): 01 December 2020 17:58:16
Eccentricity: 0.0007148
inclination: 67.0524°
perigee height: 784 km
apogee height: 795 km
right ascension of ascending node: 70.6638°
argument of perigee: 274.5421°
revolutions per day: 14.30597050
mean anomaly at epoch: 85.4863°
orbit number at epoch: 97

The dashed part of the orbit path shows where the satellite is in the earth's shadow,  

DLR